エケクルス彗星

174P/(60558) Echeclus (2015)

English version
Home page
Total 6,336 html files since Dec. 4, 1995
Updated on April 21, 2007

---------------------------------------------------------------------

・ プロフィール

符号 174P/(60558) 2000 EC98
発見日 2000年3月3日
発見光度 21.0等
発見者 J. V. Scotti, A. E. Gleason, J. L. Montani, M. T. Read (Steward Observatory, Kitt Peak)

・ 写真集

・ 軌道要素

The following orbital elements are taken from MPC 55982: 

Epoch 2007 Apr. 10.0 TT = JDT 2454200.5
T 2015 Apr. 20.5618 TT                                  MPC
q   5.855431             (2000.0)            P               Q
n   0.0278759      Peri.  162.3621      +0.9113970      +0.4114343
a  10.772499       Node   173.3230      -0.3860973      +0.8622741
e   0.456446       Incl.    4.3363      -0.1424233      +0.2953052
P  35.4
From 121 observations 1979-2006, mean residual 0".7.

・ 星図

・ 光度変化

        H = 9.5  G = 0.15                          [     ,-3400]  (              〜2005年12月30日)
        m1 = -101 + 5 logΔ + 135 log r(t + 4000)  [-3400,-3050]  (2005年12月30日〜2006年12月15日)
        H = 9.5  G = 0.15                          [-3050,     ]  (2006年12月15日〜              )

        ※ 灰色の曲線は、H = 9.5  G = 0.15 の光度曲線です。

---------------------------------------------------------------------

軌道要素はMPCのEphemerides and Orbital Elementsに掲載されたものです。
星図は StellaNavigator Ver.2.0 for Windows (アストロアーツ 編著 / アスキー出版局刊) で作成したものです。
光度グラフはComet for Windowsで作成したものです。

---------------------------------------------------------------------

Copyright(C) 1995-2008 Seiichi Yoshida (comet@aerith.net). All rights reserved.